Year,Month,Day,Hour,Minute,Value (Times are PST for windgust in km/hr)
2015,11,18,00,00,6.40
2015,11,18,00,01,3.20
2015,11,18,00,02,4.80
2015,11,18,00,03,6.40
2015,11,18,00,04,6.40
2015,11,18,00,05,6.40
2015,11,18,00,06,4.80
2015,11,18,00,07,3.20
2015,11,18,00,08,4.80
2015,11,18,00,09,4.80
2015,11,18,00,10,8.10
2015,11,18,00,11,6.40
2015,11,18,00,12,4.80
2015,11,18,00,13,8.10
2015,11,18,00,14,6.40
2015,11,18,00,15,6.40
2015,11,18,00,16,8.10
2015,11,18,00,17,8.10
2015,11,18,00,18,3.20
2015,11,18,00,19,6.40
2015,11,18,00,20,4.80
2015,11,18,00,21,3.20
2015,11,18,00,22,3.20
2015,11,18,00,23,3.20
2015,11,18,00,24,8.10
2015,11,18,00,25,9.60
2015,11,18,00,26,6.40
2015,11,18,00,27,8.10
2015,11,18,00,28,16.10
2015,11,18,00,29,16.10
2015,11,18,00,30,11.30
2015,11,18,00,31,8.10
2015,11,18,00,32,9.60
2015,11,18,00,33,9.60
2015,11,18,00,34,11.30
2015,11,18,00,35,14.50
2015,11,18,00,36,20.90
2015,11,18,00,37,17.70
2015,11,18,00,38,27.40
2015,11,18,00,39,20.90
2015,11,18,00,40,17.70
2015,11,18,00,41,11.30
2015,11,18,00,42,16.10
2015,11,18,00,43,16.10
2015,11,18,00,44,11.30
2015,11,18,00,45,20.90
2015,11,18,00,46,16.10
2015,11,18,00,47,16.10
2015,11,18,00,48,11.30
2015,11,18,00,49,8.10
2015,11,18,00,50,8.10
2015,11,18,00,51,8.10
2015,11,18,00,52,9.60
2015,11,18,00,53,14.50
2015,11,18,00,54,9.60
2015,11,18,00,55,11.30
2015,11,18,00,56,9.60
2015,11,18,00,57,12.90
2015,11,18,00,58,6.40
2015,11,18,00,59,6.40
2015,11,18,01,00,6.40
2015,11,18,01,01,8.10
2015,11,18,01,02,11.30
2015,11,18,01,03,9.60
2015,11,18,01,04,9.60
2015,11,18,01,05,9.60
2015,11,18,01,06,14.50
2015,11,18,01,07,9.60
2015,11,18,01,08,8.10
2015,11,18,01,09,14.50
2015,11,18,01,10,8.10
2015,11,18,01,11,6.40
2015,11,18,01,12,16.10
2015,11,18,01,13,17.70
2015,11,18,01,14,11.30
2015,11,18,01,15,8.10
2015,11,18,01,16,8.10
2015,11,18,01,17,6.40
2015,11,18,01,18,17.70
2015,11,18,01,19,12.90
2015,11,18,01,20,8.10
2015,11,18,01,21,8.10
2015,11,18,01,22,8.10
2015,11,18,01,23,11.30
2015,11,18,01,24,8.10
2015,11,18,01,25,8.10
2015,11,18,01,26,9.60
2015,11,18,01,27,9.60
2015,11,18,01,28,8.10
2015,11,18,01,29,4.80
2015,11,18,01,30,6.40
2015,11,18,01,31,9.60
2015,11,18,01,32,6.40
2015,11,18,01,33,8.10
2015,11,18,01,34,4.80
2015,11,18,01,35,6.40
2015,11,18,01,36,9.60
2015,11,18,01,37,6.40
2015,11,18,01,38,6.40
2015,11,18,01,39,4.80
2015,11,18,01,40,9.60
2015,11,18,01,41,9.60
2015,11,18,01,42,8.10
2015,11,18,01,43,6.40
2015,11,18,01,44,4.80
2015,11,18,01,45,8.10
2015,11,18,01,46,4.80
2015,11,18,01,47,4.80
2015,11,18,01,48,4.80
2015,11,18,01,49,6.40
2015,11,18,01,50,6.40
2015,11,18,01,51,6.40
2015,11,18,01,52,4.80
2015,11,18,01,53,6.40
2015,11,18,01,54,8.10
2015,11,18,01,55,9.60
2015,11,18,01,56,8.10
2015,11,18,01,57,9.60
2015,11,18,01,58,8.10
2015,11,18,01,59,9.60
2015,11,18,02,00,9.60
2015,11,18,02,01,9.60
2015,11,18,02,02,8.10
2015,11,18,02,03,8.10
2015,11,18,02,04,8.10
2015,11,18,02,05,6.40
2015,11,18,02,06,8.10
2015,11,18,02,07,8.10
2015,11,18,02,08,8.10
2015,11,18,02,09,8.10
2015,11,18,02,10,8.10
2015,11,18,02,11,8.10
2015,11,18,02,12,6.40
2015,11,18,02,13,6.40
2015,11,18,02,14,6.40
2015,11,18,02,15,4.80
2015,11,18,02,16,8.10
2015,11,18,02,17,4.80
2015,11,18,02,18,6.40
2015,11,18,02,19,6.40
2015,11,18,02,20,8.10
2015,11,18,02,21,8.10
2015,11,18,02,22,6.40
2015,11,18,02,23,6.40
2015,11,18,02,24,6.40
2015,11,18,02,25,4.80
2015,11,18,02,26,4.80
2015,11,18,02,27,3.20
2015,11,18,02,28,3.20
2015,11,18,02,29,4.80
2015,11,18,02,30,3.20
2015,11,18,02,31,4.80
2015,11,18,02,32,4.80
2015,11,18,02,33,3.20
2015,11,18,02,34,4.80
2015,11,18,02,35,3.20
2015,11,18,02,36,4.80
2015,11,18,02,37,3.20
2015,11,18,02,38,4.80
2015,11,18,02,39,3.20
2015,11,18,02,40,4.80
2015,11,18,02,41,4.80
2015,11,18,02,42,4.80
2015,11,18,02,43,6.40
2015,11,18,02,44,3.20
2015,11,18,02,45,4.80
2015,11,18,02,46,6.40
2015,11,18,02,47,3.20
2015,11,18,02,48,4.80
2015,11,18,02,49,8.10
2015,11,18,02,50,4.80
2015,11,18,02,51,8.10
2015,11,18,02,52,6.40
2015,11,18,02,53,8.10
2015,11,18,02,54,4.80
2015,11,18,02,55,6.40
2015,11,18,02,56,4.80
2015,11,18,02,57,6.40
2015,11,18,02,58,3.20
2015,11,18,02,59,9.60
2015,11,18,03,00,8.10
2015,11,18,03,01,8.10
2015,11,18,03,02,6.40
2015,11,18,03,03,8.10
2015,11,18,03,04,9.60
2015,11,18,03,05,4.80
2015,11,18,03,06,6.40
2015,11,18,03,07,4.80
2015,11,18,03,08,4.80
2015,11,18,03,09,4.80
2015,11,18,03,10,6.40
2015,11,18,03,11,6.40
2015,11,18,03,12,6.40
2015,11,18,03,13,4.80
2015,11,18,03,14,4.80
2015,11,18,03,15,6.40
2015,11,18,03,16,6.40
2015,11,18,03,17,6.40
2015,11,18,03,18,4.80
2015,11,18,03,19,6.40
2015,11,18,03,20,3.20
2015,11,18,03,21,3.20
2015,11,18,03,22,4.80
2015,11,18,03,23,4.80
2015,11,18,03,24,6.40
2015,11,18,03,25,4.80
2015,11,18,03,26,6.40
2015,11,18,03,27,11.30
2015,11,18,03,28,9.60
2015,11,18,03,29,3.20
2015,11,18,03,30,6.40
2015,11,18,03,31,3.20
2015,11,18,03,32,11.30
2015,11,18,03,33,9.60
2015,11,18,03,34,8.10
2015,11,18,03,35,11.30
2015,11,18,03,36,11.30
2015,11,18,03,37,4.80
2015,11,18,03,38,6.40
2015,11,18,03,39,6.40
2015,11,18,03,40,8.10
2015,11,18,03,41,8.10
2015,11,18,03,42,8.10
2015,11,18,03,43,11.30
2015,11,18,03,44,6.40
2015,11,18,03,45,6.40
2015,11,18,03,46,8.10
2015,11,18,03,47,8.10
2015,11,18,03,48,6.40
2015,11,18,03,49,8.10
2015,11,18,03,50,8.10
2015,11,18,03,51,6.40
2015,11,18,03,52,16.10
2015,11,18,03,53,11.30
2015,11,18,03,54,11.30
2015,11,18,03,55,9.60
2015,11,18,03,56,16.10
2015,11,18,03,57,16.10
2015,11,18,03,58,12.90
2015,11,18,03,59,8.10
2015,11,18,04,00,9.60
2015,11,18,04,01,8.10
2015,11,18,04,02,9.60
2015,11,18,04,03,9.60
2015,11,18,04,04,8.10
2015,11,18,04,05,11.30
2015,11,18,04,06,11.30
2015,11,18,04,07,12.90
2015,11,18,04,08,9.60
2015,11,18,04,09,14.50
2015,11,18,04,10,8.10
2015,11,18,04,11,8.10
2015,11,18,04,12,6.40
2015,11,18,04,13,14.50
2015,11,18,04,14,12.90
2015,11,18,04,15,8.10
2015,11,18,04,16,11.30
2015,11,18,04,17,6.40
2015,11,18,04,18,14.50
2015,11,18,04,19,8.10
2015,11,18,04,20,6.40
2015,11,18,04,21,8.10
2015,11,18,04,22,8.10
2015,11,18,04,23,9.60
2015,11,18,04,24,8.10
2015,11,18,04,25,11.30
2015,11,18,04,26,12.90
2015,11,18,04,27,17.70
2015,11,18,04,28,8.10
2015,11,18,04,29,8.10
2015,11,18,04,30,9.60
2015,11,18,04,31,6.40
2015,11,18,04,32,4.80
2015,11,18,04,36,3.20
2015,11,18,04,46,3.20
2015,11,18,04,47,3.20
2015,11,18,04,48,1.60
2015,11,18,04,49,4.80
2015,11,18,04,50,3.20
2015,11,18,04,51,3.20
2015,11,18,04,52,3.20
2015,11,18,04,54,3.20
2015,11,18,04,55,3.20
2015,11,18,04,56,4.80
2015,11,18,04,57,4.80
2015,11,18,04,58,1.60
2015,11,18,05,00,3.20
2015,11,18,05,01,1.60
2015,11,18,05,02,3.20
2015,11,18,05,03,3.20
2015,11,18,05,04,1.60
2015,11,18,05,05,1.60
2015,11,18,05,06,3.20
2015,11,18,05,07,1.60
2015,11,18,05,19,1.60
2015,11,18,05,22,1.60
2015,11,18,05,25,3.20
2015,11,18,05,28,1.60
2015,11,18,05,29,1.60
2015,11,18,05,30,3.20
2015,11,18,05,31,3.20
2015,11,18,05,32,3.20
2015,11,18,05,33,6.40
2015,11,18,05,34,6.40
2015,11,18,05,35,6.40
2015,11,18,05,36,4.80
2015,11,18,05,37,6.40
2015,11,18,05,38,4.80
2015,11,18,05,39,4.80
2015,11,18,05,40,4.80
2015,11,18,05,41,3.20
2015,11,18,06,00,1.60
2015,11,18,06,08,1.60
2015,11,18,06,09,4.80
2015,11,18,06,10,4.80
2015,11,18,06,11,4.80
2015,11,18,06,12,1.60
2015,11,18,06,16,1.60
2015,11,18,06,19,1.60
2015,11,18,06,38,1.60
2015,11,18,06,39,1.60
2015,11,18,06,40,1.60
2015,11,18,06,54,1.60
2015,11,18,06,55,3.20
2015,11,18,06,56,1.60
2015,11,18,06,59,3.20
2015,11,18,07,00,4.80
2015,11,18,07,01,1.60
2015,11,18,07,06,1.60
2015,11,18,07,07,3.20
2015,11,18,07,09,3.20
2015,11,18,07,10,1.60
2015,11,18,07,11,3.20
2015,11,18,07,12,4.80
2015,11,18,07,13,9.60
2015,11,18,07,14,6.40
2015,11,18,07,15,4.80
2015,11,18,07,16,3.20
2015,11,18,07,20,4.80
2015,11,18,07,21,8.10
2015,11,18,07,22,4.80
2015,11,18,07,23,1.60
2015,11,18,07,26,1.60
2015,11,18,07,31,1.60
2015,11,18,07,33,3.20
2015,11,18,07,34,4.80
2015,11,18,07,35,6.40
2015,11,18,07,36,4.80
2015,11,18,07,37,6.40
2015,11,18,07,38,6.40
2015,11,18,07,39,6.40
2015,11,18,07,40,3.20
2015,11,18,07,41,4.80
2015,11,18,07,42,3.20
2015,11,18,07,43,4.80
2015,11,18,07,44,4.80
2015,11,18,07,45,4.80
2015,11,18,07,46,3.20
2015,11,18,07,47,3.20
2015,11,18,07,48,3.20
2015,11,18,07,49,4.80
2015,11,18,07,50,3.20
2015,11,18,07,51,4.80
2015,11,18,07,52,4.80
2015,11,18,07,53,3.20
2015,11,18,07,54,3.20
2015,11,18,07,55,3.20
2015,11,18,07,56,3.20
2015,11,18,07,58,1.60
2015,11,18,08,49,1.60
2015,11,18,08,52,1.60
2015,11,18,08,53,1.60
2015,11,18,08,56,1.60
2015,11,18,08,58,1.60
2015,11,18,09,04,4.80
2015,11,18,09,05,4.80
2015,11,18,09,06,1.60
2015,11,18,09,07,1.60
2015,11,18,09,12,4.80
2015,11,18,09,13,1.60
2015,11,18,09,31,1.60
2015,11,18,09,32,3.20
2015,11,18,09,35,1.60
2015,11,18,09,38,1.60
2015,11,18,09,39,3.20
2015,11,18,09,40,3.20
2015,11,18,09,42,3.20
2015,11,18,09,43,1.60
2015,11,18,09,44,1.60
2015,11,18,09,45,3.20
2015,11,18,09,49,1.60
2015,11,18,09,51,1.60
2015,11,18,09,55,1.60
2015,11,18,09,56,1.60
2015,11,18,09,58,1.60
2015,11,18,09,59,1.60
2015,11,18,10,03,1.60
2015,11,18,10,04,3.20
2015,11,18,10,07,1.60
2015,11,18,10,08,3.20
2015,11,18,10,09,3.20
2015,11,18,10,11,4.80
2015,11,18,10,12,3.20
2015,11,18,10,13,1.60
2015,11,18,10,14,4.80
2015,11,18,10,15,3.20
2015,11,18,10,16,4.80
2015,11,18,10,17,4.80
2015,11,18,10,18,6.40
2015,11,18,10,19,4.80
2015,11,18,10,20,6.40
2015,11,18,10,21,4.80
2015,11,18,10,22,3.20
2015,11,18,10,23,3.20
2015,11,18,10,24,3.20
2015,11,18,10,25,6.40
2015,11,18,10,26,4.80
2015,11,18,10,27,4.80
2015,11,18,10,28,4.80
2015,11,18,10,29,4.80
2015,11,18,10,30,3.20
2015,11,18,10,31,4.80
2015,11,18,10,32,8.10
2015,11,18,10,33,6.40
2015,11,18,10,34,4.80
2015,11,18,10,35,8.10
2015,11,18,10,36,8.10
2015,11,18,10,37,4.80
2015,11,18,10,38,6.40
2015,11,18,10,39,8.10
2015,11,18,10,40,8.10
2015,11,18,10,41,11.30
2015,11,18,10,42,16.10
2015,11,18,10,43,8.10
2015,11,18,10,44,8.10
2015,11,18,10,45,9.60
2015,11,18,10,46,12.90
2015,11,18,10,47,3.20
2015,11,18,10,48,3.20
2015,11,18,10,49,8.10
2015,11,18,10,50,9.60
2015,11,18,10,51,8.10
2015,11,18,10,52,9.60
2015,11,18,10,53,9.60
2015,11,18,10,54,17.70
2015,11,18,10,55,17.70
2015,11,18,10,56,14.50
2015,11,18,10,57,8.10
2015,11,18,10,58,9.60
2015,11,18,10,59,11.30
2015,11,18,11,00,12.90
2015,11,18,11,01,8.10
2015,11,18,11,02,11.30
2015,11,18,11,03,9.60
2015,11,18,11,04,11.30
2015,11,18,11,05,14.50
2015,11,18,11,06,8.10
2015,11,18,11,07,6.40
2015,11,18,11,08,8.10
2015,11,18,11,09,16.10
2015,11,18,11,10,17.70
2015,11,18,11,11,20.90
2015,11,18,11,12,16.10
2015,11,18,11,13,9.60
2015,11,18,11,14,11.30
2015,11,18,11,15,17.70
2015,11,18,11,16,14.50
2015,11,18,11,17,11.30
2015,11,18,11,18,12.90
2015,11,18,11,19,11.30
2015,11,18,11,20,11.30
2015,11,18,11,21,9.60
2015,11,18,11,22,11.30
2015,11,18,11,23,6.40
2015,11,18,11,24,14.50
2015,11,18,11,25,11.30
2015,11,18,11,26,9.60
2015,11,18,11,27,8.10
2015,11,18,11,28,11.30
2015,11,18,11,29,19.30
2015,11,18,11,30,19.30
2015,11,18,11,31,16.10
2015,11,18,11,32,11.30
2015,11,18,11,33,9.60
2015,11,18,11,34,6.40
2015,11,18,11,35,16.10
2015,11,18,11,36,9.60
2015,11,18,11,37,9.60
2015,11,18,11,38,9.60
2015,11,18,11,39,14.50
2015,11,18,11,40,11.30
2015,11,18,11,41,8.10
2015,11,18,11,42,9.60
2015,11,18,11,43,8.10
2015,11,18,11,44,9.60
2015,11,18,11,45,16.10
2015,11,18,11,46,12.90
2015,11,18,11,47,14.50
2015,11,18,11,48,19.30
2015,11,18,11,49,14.50
2015,11,18,11,50,8.10
2015,11,18,11,51,14.50
2015,11,18,11,52,9.60
2015,11,18,11,53,11.30
2015,11,18,11,54,14.50
2015,11,18,11,55,11.30
2015,11,18,11,56,8.10
2015,11,18,11,57,8.10
2015,11,18,11,58,6.40
2015,11,18,11,59,6.40
2015,11,18,12,00,4.80
2015,11,18,12,01,8.10
2015,11,18,12,02,6.40
2015,11,18,12,03,6.40
2015,11,18,12,04,14.50
2015,11,18,12,05,8.10
2015,11,18,12,06,6.40
2015,11,18,12,07,12.90
2015,11,18,12,08,9.60
2015,11,18,12,09,16.10
2015,11,18,12,10,8.10
2015,11,18,12,11,14.50
2015,11,18,12,12,19.30
2015,11,18,12,13,14.50
2015,11,18,12,14,16.10
2015,11,18,12,15,16.10
2015,11,18,12,16,9.60
2015,11,18,12,17,6.40
2015,11,18,12,18,8.10
2015,11,18,12,19,14.50
2015,11,18,12,20,9.60
2015,11,18,12,21,8.10
2015,11,18,12,22,6.40
2015,11,18,12,23,11.30
2015,11,18,12,24,9.60
2015,11,18,12,25,9.60
2015,11,18,12,26,11.30
2015,11,18,12,27,17.70
2015,11,18,12,28,9.60
2015,11,18,12,29,14.50
2015,11,18,12,30,17.70
2015,11,18,12,31,11.30
2015,11,18,12,32,9.60
2015,11,18,12,33,9.60
2015,11,18,12,34,8.10
2015,11,18,12,35,9.60
2015,11,18,12,36,9.60
2015,11,18,12,37,8.10
2015,11,18,12,38,11.30
2015,11,18,12,39,8.10
2015,11,18,12,40,14.50
2015,11,18,12,41,11.30
2015,11,18,12,42,19.30
2015,11,18,12,43,16.10
2015,11,18,12,44,9.60
2015,11,18,12,45,9.60
2015,11,18,12,46,17.70
2015,11,18,12,47,19.30
2015,11,18,12,48,11.30
2015,11,18,12,49,8.10
2015,11,18,12,50,17.70
2015,11,18,12,51,14.50
2015,11,18,12,52,17.70
2015,11,18,12,53,11.30
2015,11,18,12,54,11.30
2015,11,18,12,55,16.10
2015,11,18,12,56,19.30
2015,11,18,12,57,11.30
2015,11,18,12,58,8.10
2015,11,18,12,59,11.30
2015,11,18,13,00,14.50
2015,11,18,13,01,22.50
2015,11,18,13,02,22.50
2015,11,18,13,03,20.90
2015,11,18,13,04,16.10
2015,11,18,13,05,11.30
2015,11,18,13,06,8.10
2015,11,18,13,07,11.30
2015,11,18,13,08,17.70
2015,11,18,13,09,14.50
2015,11,18,13,10,19.30
2015,11,18,13,11,17.70
2015,11,18,13,12,17.70
2015,11,18,13,13,17.70
2015,11,18,13,14,20.90
2015,11,18,13,15,19.30
2015,11,18,13,16,14.50
2015,11,18,13,17,11.30
2015,11,18,13,18,19.30
2015,11,18,13,19,20.90
2015,11,18,13,20,17.70
2015,11,18,13,21,19.30
2015,11,18,13,22,17.70
2015,11,18,13,23,17.70
2015,11,18,13,24,17.70
2015,11,18,13,25,16.10
2015,11,18,13,26,16.10
2015,11,18,13,27,19.30
2015,11,18,13,28,14.50
2015,11,18,13,29,16.10
2015,11,18,13,30,14.50
2015,11,18,13,31,9.60
2015,11,18,13,32,8.10
2015,11,18,13,33,9.60
2015,11,18,13,34,16.10
2015,11,18,13,35,24.20
2015,11,18,13,36,17.70
2015,11,18,13,37,20.90
2015,11,18,13,38,9.60
2015,11,18,13,39,14.50
2015,11,18,13,40,11.30
2015,11,18,13,41,8.10
2015,11,18,13,42,6.40
2015,11,18,13,43,8.10
2015,11,18,13,44,4.80
2015,11,18,13,45,8.10
2015,11,18,13,46,6.40
2015,11,18,13,47,8.10
2015,11,18,13,48,4.80
2015,11,18,13,49,9.60
2015,11,18,13,50,16.10
2015,11,18,13,51,9.60
2015,11,18,13,52,8.10
2015,11,18,13,53,9.60
2015,11,18,13,54,11.30
2015,11,18,13,55,6.40
2015,11,18,13,56,14.50
2015,11,18,13,57,11.30
2015,11,18,13,58,12.90
2015,11,18,13,59,9.60
2015,11,18,14,00,11.30
2015,11,18,14,01,6.40
2015,11,18,14,02,14.50
2015,11,18,14,03,8.10
2015,11,18,14,04,9.60
2015,11,18,14,05,8.10
2015,11,18,14,06,6.40
2015,11,18,14,07,8.10
2015,11,18,14,08,11.30
2015,11,18,14,09,12.90
2015,11,18,14,10,11.30
2015,11,18,14,11,17.70
2015,11,18,14,12,9.60
2015,11,18,14,13,11.30
2015,11,18,14,14,9.60
2015,11,18,14,15,16.10
2015,11,18,14,16,12.90
2015,11,18,14,17,11.30
2015,11,18,14,18,8.10
2015,11,18,14,19,8.10
2015,11,18,14,20,9.60
2015,11,18,14,21,11.30
2015,11,18,14,22,4.80
2015,11,18,14,23,16.10
2015,11,18,14,24,12.90
2015,11,18,14,25,9.60
2015,11,18,14,26,16.10
2015,11,18,14,27,11.30
2015,11,18,14,28,16.10
2015,11,18,14,29,11.30
2015,11,18,14,30,8.10
2015,11,18,14,31,8.10
2015,11,18,14,32,11.30
2015,11,18,14,33,6.40
2015,11,18,14,34,9.60
2015,11,18,14,35,9.60
2015,11,18,14,36,9.60
2015,11,18,14,37,9.60
2015,11,18,14,38,8.10
2015,11,18,14,39,12.90
2015,11,18,14,40,16.10
2015,11,18,14,41,16.10
2015,11,18,14,42,17.70
2015,11,18,14,43,11.30
2015,11,18,14,44,9.60
2015,11,18,14,45,8.10
2015,11,18,14,46,11.30
2015,11,18,14,47,14.50
2015,11,18,14,48,8.10
2015,11,18,14,49,17.70
2015,11,18,14,50,11.30
2015,11,18,14,51,8.10
2015,11,18,14,52,9.60
2015,11,18,14,53,12.90
2015,11,18,14,54,6.40
2015,11,18,14,55,8.10
2015,11,18,14,56,14.50
2015,11,18,14,57,8.10
2015,11,18,14,58,16.10
2015,11,18,14,59,8.10
2015,11,18,15,00,8.10
2015,11,18,15,01,8.10
2015,11,18,15,02,6.40
2015,11,18,15,03,8.10
2015,11,18,15,04,6.40
2015,11,18,15,05,11.30
2015,11,18,15,06,11.30
2015,11,18,15,07,8.10
2015,11,18,15,08,8.10
2015,11,18,15,09,9.60
2015,11,18,15,10,4.80
2015,11,18,15,11,11.30
2015,11,18,15,12,9.60
2015,11,18,15,13,11.30
2015,11,18,15,14,9.60
2015,11,18,15,15,9.60
2015,11,18,15,16,11.30
2015,11,18,15,17,6.40
2015,11,18,15,18,4.80
2015,11,18,15,19,4.80
2015,11,18,15,20,6.40
2015,11,18,15,21,9.60
2015,11,18,15,22,6.40
2015,11,18,15,23,6.40
2015,11,18,15,24,8.10
2015,11,18,15,25,8.10
2015,11,18,15,26,4.80
2015,11,18,15,27,4.80
2015,11,18,15,28,8.10
2015,11,18,15,29,11.30
2015,11,18,15,30,4.80
2015,11,18,15,31,6.40
2015,11,18,15,32,4.80
2015,11,18,15,33,8.10
2015,11,18,15,34,4.80
2015,11,18,15,35,4.80
2015,11,18,15,36,6.40
2015,11,18,15,37,4.80
2015,11,18,15,38,8.10
2015,11,18,15,39,9.60
2015,11,18,15,40,9.60
2015,11,18,15,41,8.10
2015,11,18,15,42,8.10
2015,11,18,15,43,8.10
2015,11,18,15,44,9.60
2015,11,18,15,45,11.30
2015,11,18,15,46,6.40
2015,11,18,15,47,4.80
2015,11,18,15,48,4.80
2015,11,18,15,49,6.40
2015,11,18,15,50,9.60
2015,11,18,15,51,8.10
2015,11,18,15,52,3.20
2015,11,18,15,53,4.80
2015,11,18,15,54,3.20
2015,11,18,15,55,4.80
2015,11,18,15,56,4.80
2015,11,18,15,57,6.40
2015,11,18,15,58,6.40
2015,11,18,15,59,4.80
2015,11,18,16,00,6.40
2015,11,18,16,01,3.20
2015,11,18,16,02,3.20
2015,11,18,16,03,3.20
2015,11,18,16,04,8.10
2015,11,18,16,05,6.40
2015,11,18,16,06,6.40
2015,11,18,16,07,8.10
2015,11,18,16,08,6.40
2015,11,18,16,09,6.40
2015,11,18,16,10,9.60
2015,11,18,16,11,8.10
2015,11,18,16,12,8.10
2015,11,18,16,13,9.60
2015,11,18,16,14,8.10
2015,11,18,16,15,6.40
2015,11,18,16,16,9.60
2015,11,18,16,17,4.80
2015,11,18,16,18,4.80
2015,11,18,16,19,8.10
2015,11,18,16,20,6.40
2015,11,18,16,21,4.80
2015,11,18,16,22,9.60
2015,11,18,16,23,6.40
2015,11,18,16,24,8.10
2015,11,18,16,25,8.10
2015,11,18,16,26,8.10
2015,11,18,16,27,6.40
2015,11,18,16,28,4.80
2015,11,18,16,29,8.10
2015,11,18,16,30,6.40
2015,11,18,16,31,8.10
2015,11,18,16,32,6.40
2015,11,18,16,33,8.10
2015,11,18,16,34,9.60
2015,11,18,16,35,6.40
2015,11,18,16,36,6.40
2015,11,18,16,37,4.80
2015,11,18,16,38,6.40
2015,11,18,16,39,3.20
2015,11,18,16,40,1.60
2015,11,18,16,41,1.60
2015,11,18,16,42,4.80
2015,11,18,16,43,4.80
2015,11,18,16,44,4.80
2015,11,18,16,45,4.80
2015,11,18,16,46,3.20
2015,11,18,16,47,3.20
2015,11,18,16,48,8.10
2015,11,18,16,49,6.40
2015,11,18,16,50,3.20
2015,11,18,16,51,4.80
2015,11,18,16,52,3.20
2015,11,18,16,53,1.60
2015,11,18,16,54,4.80
2015,11,18,16,55,3.20
2015,11,18,16,56,3.20
2015,11,18,16,57,6.40
2015,11,18,16,58,9.60
2015,11,18,16,59,6.40
2015,11,18,17,00,4.80
2015,11,18,17,01,6.40
2015,11,18,17,02,8.10
2015,11,18,17,03,4.80
2015,11,18,17,04,6.40
2015,11,18,17,05,3.20
2015,11,18,17,06,4.80
2015,11,18,17,07,9.60
2015,11,18,17,08,8.10
2015,11,18,17,09,6.40
2015,11,18,17,10,8.10
2015,11,18,17,11,6.40
2015,11,18,17,12,4.80
2015,11,18,17,13,4.80
2015,11,18,17,14,4.80
2015,11,18,17,15,3.20
2015,11,18,17,16,3.20
2015,11,18,17,17,4.80
2015,11,18,17,18,3.20
2015,11,18,17,19,3.20
2015,11,18,17,20,3.20
2015,11,18,17,21,3.20
2015,11,18,17,22,4.80
2015,11,18,17,23,3.20
2015,11,18,17,24,1.60
2015,11,18,17,25,1.60
2015,11,18,17,26,4.80
2015,11,18,17,27,4.80
2015,11,18,17,28,3.20
2015,11,18,17,29,3.20
2015,11,18,17,30,3.20
2015,11,18,17,31,3.20
2015,11,18,17,32,1.60
2015,11,18,17,33,4.80
2015,11,18,17,34,3.20
2015,11,18,17,35,3.20
2015,11,18,17,36,3.20
2015,11,18,17,37,3.20
2015,11,18,17,38,1.60
2015,11,18,17,39,1.60
2015,11,18,17,40,3.20
2015,11,18,17,41,3.20
2015,11,18,17,42,1.60
2015,11,18,17,43,4.80
2015,11,18,17,45,1.60
2015,11,18,17,46,3.20
2015,11,18,17,47,3.20
2015,11,18,17,48,1.60
2015,11,18,17,49,1.60
2015,11,18,17,50,1.60
2015,11,18,17,56,3.20
2015,11,18,17,57,3.20
2015,11,18,17,58,3.20
2015,11,18,17,59,1.60
2015,11,18,18,03,1.60
2015,11,18,18,06,3.20
2015,11,18,18,07,1.60
2015,11,18,18,27,1.60
2015,11,18,18,47,1.60
2015,11,18,18,57,1.60
2015,11,18,18,58,1.60
2015,11,18,19,03,3.20
2015,11,18,19,04,4.80
2015,11,18,19,08,1.60
2015,11,18,19,25,1.60
2015,11,18,19,26,3.20
2015,11,18,19,31,3.20
2015,11,18,19,32,3.20
2015,11,18,19,33,1.60
2015,11,18,19,34,3.20
2015,11,18,19,35,1.60
2015,11,18,19,42,3.20
2015,11,18,19,43,1.60
2015,11,18,19,44,3.20
2015,11,18,19,45,4.80
2015,11,18,19,46,4.80
2015,11,18,19,47,1.60
2015,11,18,19,49,1.60
2015,11,18,19,52,3.20
2015,11,18,19,53,3.20
2015,11,18,19,55,3.20
2015,11,18,19,59,1.60
2015,11,18,20,03,3.20
2015,11,18,20,05,1.60
2015,11,18,20,06,1.60
2015,11,18,20,19,3.20
2015,11,18,20,20,3.20
2015,11,18,20,22,1.60
2015,11,18,20,23,1.60
2015,11,18,20,24,1.60
2015,11,18,20,28,1.60
2015,11,18,20,36,3.20
2015,11,18,20,51,1.60
2015,11,18,20,52,3.20
2015,11,18,20,53,3.20
2015,11,18,20,54,3.20
2015,11,18,20,55,4.80
2015,11,18,20,56,3.20
2015,11,18,20,57,1.60
2015,11,18,21,01,1.60
2015,11,18,21,02,1.60
2015,11,18,21,07,1.60
2015,11,18,21,18,1.60
2015,11,18,21,23,1.60
2015,11,18,21,32,1.60
2015,11,18,21,33,1.60
2015,11,18,21,34,1.60
2015,11,18,21,35,6.40
2015,11,18,21,36,6.40
2015,11,18,21,37,6.40
2015,11,18,21,38,3.20
2015,11,18,21,39,4.80
2015,11,18,21,40,3.20
2015,11,18,21,41,1.60
2015,11,18,21,42,4.80
2015,11,18,21,43,6.40
2015,11,18,21,44,4.80
2015,11,18,21,45,4.80
2015,11,18,21,46,3.20
2015,11,18,21,47,4.80
2015,11,18,21,48,3.20
2015,11,18,21,49,4.80
2015,11,18,21,50,4.80
2015,11,18,21,51,3.20
2015,11,18,21,52,3.20
2015,11,18,21,53,1.60
2015,11,18,21,54,3.20
2015,11,18,22,00,3.20
2015,11,18,22,01,3.20
2015,11,18,22,02,4.80
2015,11,18,22,03,4.80
2015,11,18,22,04,3.20
2015,11,18,22,05,1.60
2015,11,18,22,06,1.60
2015,11,18,22,07,3.20
2015,11,18,22,08,4.80
2015,11,18,22,09,1.60
2015,11,18,22,10,4.80
2015,11,18,22,11,4.80
2015,11,18,22,12,4.80
2015,11,18,22,13,6.40
2015,11,18,22,14,6.40
2015,11,18,22,15,4.80
2015,11,18,22,16,4.80
2015,11,18,22,17,4.80
2015,11,18,22,18,4.80
2015,11,18,22,19,6.40
2015,11,18,22,20,4.80
2015,11,18,22,21,4.80
2015,11,18,22,22,4.80
2015,11,18,22,23,6.40
2015,11,18,22,24,6.40
2015,11,18,22,25,6.40
2015,11,18,22,26,4.80
2015,11,18,22,27,6.40
2015,11,18,22,28,4.80
2015,11,18,22,29,8.10
2015,11,18,22,30,8.10
2015,11,18,22,31,4.80
2015,11,18,22,32,4.80
2015,11,18,22,33,6.40
2015,11,18,22,34,4.80
2015,11,18,22,35,4.80
2015,11,18,22,36,4.80
2015,11,18,22,37,8.10
2015,11,18,22,38,3.20
2015,11,18,22,39,6.40
2015,11,18,22,40,6.40
2015,11,18,22,41,4.80
2015,11,18,22,42,3.20
2015,11,18,22,43,6.40
2015,11,18,22,44,6.40
2015,11,18,22,45,6.40
2015,11,18,22,46,6.40
2015,11,18,22,47,8.10
2015,11,18,22,48,8.10
2015,11,18,22,49,9.60
2015,11,18,22,50,9.60
2015,11,18,22,51,9.60
2015,11,18,22,52,9.60
2015,11,18,22,53,9.60
2015,11,18,22,54,4.80
2015,11,18,22,55,8.10
2015,11,18,22,56,6.40
2015,11,18,22,57,8.10
2015,11,18,22,58,4.80
2015,11,18,22,59,8.10
2015,11,18,23,00,8.10
2015,11,18,23,01,8.10
2015,11,18,23,02,6.40
2015,11,18,23,03,6.40
2015,11,18,23,04,9.60
2015,11,18,23,05,6.40
2015,11,18,23,06,8.10
2015,11,18,23,07,8.10
2015,11,18,23,08,9.60
2015,11,18,23,09,8.10
2015,11,18,23,10,4.80
2015,11,18,23,11,3.20
2015,11,18,23,12,4.80
2015,11,18,23,13,6.40
2015,11,18,23,14,4.80
2015,11,18,23,15,3.20
2015,11,18,23,16,6.40
2015,11,18,23,17,6.40
2015,11,18,23,18,6.40
2015,11,18,23,19,6.40
2015,11,18,23,20,6.40
2015,11,18,23,21,8.10
2015,11,18,23,22,4.80
2015,11,18,23,23,6.40
2015,11,18,23,24,6.40
2015,11,18,23,25,4.80
2015,11,18,23,26,4.80
2015,11,18,23,27,6.40
2015,11,18,23,28,6.40
2015,11,18,23,29,8.10
2015,11,18,23,30,4.80
2015,11,18,23,31,6.40
2015,11,18,23,32,4.80
2015,11,18,23,33,6.40
2015,11,18,23,34,4.80
2015,11,18,23,35,4.80
2015,11,18,23,36,6.40
2015,11,18,23,37,3.20
2015,11,18,23,38,3.20
2015,11,18,23,39,3.20
2015,11,18,23,40,6.40
2015,11,18,23,41,4.80
2015,11,18,23,42,4.80
2015,11,18,23,43,6.40
2015,11,18,23,44,6.40
2015,11,18,23,45,6.40
2015,11,18,23,46,9.60
2015,11,18,23,47,8.10
2015,11,18,23,48,11.30
2015,11,18,23,49,8.10
2015,11,18,23,50,6.40
2015,11,18,23,51,4.80
2015,11,18,23,52,8.10
2015,11,18,23,53,6.40
2015,11,18,23,54,6.40
2015,11,18,23,55,9.60
2015,11,18,23,56,4.80
2015,11,18,23,57,4.80
2015,11,18,23,58,4.80
2015,11,18,23,59,3.20
